When you browse on this site, cookies collect data to enhance your experience and personalize the content and advertising you see.
Visit our Privacy Policy to learn more. By continuing to use the site, you agree to this use of cookies and data.
  • In United Kingdom
  • List of Countries
  • For 7 days
  • Water Temperature
  • Weather Map
  • Weather Widgets
  • user-avatar
    Login

    Hourly Weather Porto-Novo

    Today, 19 October, Saturday

    Time Temperature Precipitation Wind Pressure Humidity
    00:00 +27°C° 0 mm 2 mps 757 mmHg 89%
    01:00 +26°C° 1.1 mm 2 mps 756 mmHg 90%
    02:00 +26°C° 1.1 mm 2 mps 756 mmHg 91%
    03:00 +26°C° 1.1 mm 2 mps 755 mmHg 92%
    04:00 +26°C° 1.5 mm 2 mps 756 mmHg 92%
    05:00 +26°C° 1.5 mm 2 mps 756 mmHg 92%
    06:00 +26°C° 1.5 mm 2 mps 757 mmHg 93%
    07:00 +27°C° 0.8 mm 2 mps 757 mmHg 87%
    08:00 +28°C° 0.8 mm 1 mps 757 mmHg 81%
    09:00 +30°C° 0.8 mm 1 mps 757 mmHg 76%
    10:00 +31°C° 0 mm 1 mps 757 mmHg 70%
    11:00 +32°C° 0 mm 2 mps 757 mmHg 65%
    12:00 +33°C° 0 mm 3 mps 756 mmHg 60%
    13:00 +33°C° 0.1 mm 4 mps 755 mmHg 62%
    14:00 +33°C° 0.1 mm 4 mps 755 mmHg 64%
    15:00 +32°C° 0.1 mm 5 mps 754 mmHg 66%
    16:00 +30°C° 0 mm 5 mps 754 mmHg 71%
    17:00 +29°C° 0 mm 4 mps 755 mmHg 76%
    18:00 +28°C° 0 mm 4 mps 755 mmHg 82%
    19:00 +28°C° 0.3 mm 4 mps 756 mmHg 82%
    20:00 +28°C° 0.3 mm 4 mps 757 mmHg 83%
    21:00 +27°C° 0.3 mm 4 mps 758 mmHg 83%
    22:00 +27°C° 0.1 mm 4 mps 758 mmHg 84%
    23:00 +27°C° 0.1 mm 4 mps 757 mmHg 84%

    Tomorrow, 20 October, Sunday

    Time Temperature Precipitation Wind Pressure Humidity
    00:00 +27°C° 0.1 mm 4 mps 757 mmHg 85%
    01:00 +27°C° 0.1 mm 3 mps 757 mmHg 86%
    02:00 +27°C° 0.1 mm 3 mps 756 mmHg 87%
    03:00 +26°C° 0.1 mm 3 mps 756 mmHg 88%
    04:00 +26°C° 0.1 mm 3 mps 756 mmHg 88%
    05:00 +26°C° 0.1 mm 2 mps 757 mmHg 88%
    06:00 +27°C° 0.1 mm 2 mps 757 mmHg 88%
    07:00 +28°C° 0.4 mm 2 mps 758 mmHg 83%
    08:00 +29°C° 0.4 mm 3 mps 758 mmHg 77%
    09:00 +31°C° 0.4 mm 3 mps 759 mmHg 71%
    10:00 +30°C° 0.4 mm 3 mps 758 mmHg 72%
    11:00 +30°C° 0.4 mm 3 mps 757 mmHg 73%
    12:00 +30°C° 0.4 mm 3 mps 757 mmHg 74%
    13:00 +30°C° 0.2 mm 3 mps 756 mmHg 72%
    14:00 +30°C° 0.2 mm 4 mps 756 mmHg 71%
    15:00 +32°C° 0.2 mm 4 mps 755 mmHg 70%
    16:00 +30°C° 0.1 mm 4 mps 756 mmHg 74%
    17:00 +29°C° 0.1 mm 3 mps 756 mmHg 78%
    18:00 +28°C° 0.1 mm 3 mps 757 mmHg 82%
    19:00 +27°C° 0 mm 3 mps 757 mmHg 83%
    20:00 +27°C° 0 mm 2 mps 758 mmHg 85%
    21:00 +27°C° 0 mm 2 mps 759 mmHg 86%
    22:00 +27°C° 0 mm 2 mps 758 mmHg 87%
    23:00 +27°C° 0 mm 2 mps 758 mmHg 87%

    Day after tomorrow, 21 October, Monday

    Time Temperature Precipitation Wind Pressure Humidity
    00:00 +27°C° 0 mm 2 mps 758 mmHg 88%
    01:00 +27°C° 0 mm 2 mps 757 mmHg 88%
    02:00 +26°C° 0 mm 2 mps 757 mmHg 89%
    03:00 +26°C° 0 mm 2 mps 757 mmHg 89%
    04:00 +26°C° 0 mm 2 mps 757 mmHg 89%
    05:00 +27°C° 0 mm 2 mps 757 mmHg 89%
    06:00 +27°C° 0 mm 2 mps 758 mmHg 88%
    07:00 +28°C° 0 mm 2 mps 758 mmHg 85%
    08:00 +28°C° 0 mm 1 mps 758 mmHg 81%
    09:00 +29°C° 0 mm 1 mps 759 mmHg 77%
    10:00 +30°C° 0 mm 1 mps 758 mmHg 72%
    11:00 +31°C° 0 mm 2 mps 757 mmHg 68%
    12:00 +32°C° 0 mm 2 mps 757 mmHg 63%
    13:00 +33°C° 0 mm 3 mps 756 mmHg 64%
    14:00 +33°C° 0 mm 3 mps 756 mmHg 65%
    15:00 +33°C° 0 mm 3 mps 755 mmHg 66%
    16:00 +31°C° 0 mm 3 mps 755 mmHg 71%
    17:00 +29°C° 0 mm 3 mps 755 mmHg 77%
    18:00 +28°C° 0 mm 3 mps 755 mmHg 82%
    19:00 +28°C° 0.5 mm 3 mps 756 mmHg 84%
    20:00 +28°C° 0.5 mm 3 mps 757 mmHg 85%
    21:00 +28°C° 0.5 mm 2 mps 757 mmHg 86%
    22:00 +27°C° 1.1 mm 3 mps 757 mmHg 88%
    23:00 +27°C° 1.1 mm 3 mps 757 mmHg 89%

    22 October, Tuesday

    Time Temperature Precipitation Wind Pressure Humidity
    00:00 +27°C° 1.1 mm 3 mps 756 mmHg 91%
    01:00 +27°C° 3.1 mm 3 mps 756 mmHg 91%
    02:00 +26°C° 3.1 mm 3 mps 756 mmHg 92%
    03:00 +26°C° 3.1 mm 3 mps 756 mmHg 92%
    04:00 +26°C° 0.5 mm 3 mps 756 mmHg 92%
    05:00 +26°C° 0.5 mm 3 mps 756 mmHg 92%
    06:00 +26°C° 0.5 mm 3 mps 757 mmHg 93%
    07:00 +27°C° 0.2 mm 3 mps 757 mmHg 87%
    08:00 +29°C° 0.2 mm 3 mps 757 mmHg 82%
    09:00 +30°C° 0.2 mm 3 mps 757 mmHg 76%
    10:00 +30°C° 0.2 mm 3 mps 757 mmHg 74%
    11:00 +31°C° 0.2 mm 3 mps 756 mmHg 71%
    12:00 +33°C° 0.2 mm 4 mps 755 mmHg 69%
    13:00 +32°C° 0.2 mm 4 mps 755 mmHg 72%
    14:00 +30°C° 0.2 mm 4 mps 754 mmHg 75%
    15:00 +30°C° 0.2 mm 4 mps 754 mmHg 78%
    16:00 +29°C° 0 mm 3 mps 754 mmHg 81%
    17:00 +28°C° 0 mm 3 mps 755 mmHg 84%
    18:00 +28°C° 0 mm 2 mps 755 mmHg 87%
    19:00 +28°C° 0.1 mm 2 mps 755 mmHg 88%
    20:00 +27°C° 0.1 mm 2 mps 756 mmHg 89%
    21:00 +27°C° 0.1 mm 2 mps 756 mmHg 89%
    22:00 +27°C° 0.2 mm 2 mps 756 mmHg 90%
    23:00 +27°C° 0.2 mm 2 mps 756 mmHg 90%

    23 October, Wednesday

    Time Temperature Precipitation Wind Pressure Humidity
    00:00 +27°C° 0.2 mm 2 mps 756 mmHg 90%
    01:00 +27°C° 0.1 mm 2 mps 756 mmHg 90%
    02:00 +27°C° 0.1 mm 1 mps 755 mmHg 90%
    03:00 +27°C° 0.1 mm 1 mps 755 mmHg 90%
    04:00 +27°C° 0 mm 1 mps 755 mmHg 90%
    05:00 +27°C° 0 mm 1 mps 755 mmHg 90%
    06:00 +27°C° 0 mm 1 mps 756 mmHg 90%
    07:00 +28°C° 0 mm 2 mps 756 mmHg 84%
    08:00 +30°C° 0 mm 2 mps 756 mmHg 77%
    09:00 +31°C° 0 mm 3 mps 757 mmHg 70%
    10:00 +33°C° 0 mm 3 mps 756 mmHg 68%
    11:00 +33°C° 0 mm 3 mps 756 mmHg 66%
    12:00 +33°C° 0 mm 4 mps 755 mmHg 65%
    13:00 +33°C° 0 mm 4 mps 755 mmHg 66%
    14:00 +33°C° 0 mm 4 mps 754 mmHg 67%
    15:00 +32°C° 0 mm 4 mps 754 mmHg 68%
    16:00 +30°C° 0 mm 4 mps 754 mmHg 73%
    17:00 +29°C° 0 mm 3 mps 755 mmHg 79%
    18:00 +28°C° 0 mm 3 mps 755 mmHg 84%
    19:00 +28°C° 0 mm 3 mps 756 mmHg 85%
    20:00 +27°C° 0 mm 3 mps 756 mmHg 87%
    21:00 +27°C° 0 mm 3 mps 757 mmHg 88%
    22:00 +27°C° 0 mm 2 mps 756 mmHg 89%
    23:00 +27°C° 0 mm 2 mps 756 mmHg 90%

    24 October, Thursday

    Time Temperature Precipitation Wind Pressure Humidity
    00:00 +27°C° 0 mm 2 mps 756 mmHg 91%
    01:00 +27°C° 0.1 mm 2 mps 756 mmHg 92%
    02:00 +26°C° 0.1 mm 2 mps 756 mmHg 92%
    03:00 +26°C° 0.1 mm 2 mps 756 mmHg 93%
    04:00 +26°C° 0.7 mm 2 mps 756 mmHg 92%
    05:00 +26°C° 0.7 mm 2 mps 756 mmHg 92%
    06:00 +26°C° 0.7 mm 2 mps 756 mmHg 92%
    07:00 +27°C° 0.2 mm 2 mps 757 mmHg 89%
    08:00 +27°C° 0.2 mm 2 mps 757 mmHg 86%
    09:00 +28°C° 0.2 mm 1 mps 757 mmHg 83%
    10:00 +29°C° 0 mm 2 mps 757 mmHg 80%
    11:00 +29°C° 0 mm 3 mps 756 mmHg 77%
    12:00 +30°C° 0 mm 4 mps 756 mmHg 74%
    13:00 +30°C° 0 mm 4 mps 755 mmHg 73%
    14:00 +30°C° 0 mm 4 mps 755 mmHg 72%
    15:00 +32°C° 0 mm 4 mps 754 mmHg 72%
    16:00 +30°C° 0 mm 3 mps 755 mmHg 77%
    17:00 +28°C° 0 mm 3 mps 755 mmHg 81%
    18:00 +27°C° 0 mm 2 mps 755 mmHg 86%
    19:00 +27°C° 0 mm 2 mps 756 mmHg 87%
    20:00 +27°C° 0 mm 2 mps 756 mmHg 88%
    21:00 +27°C° 0 mm 2 mps 757 mmHg 89%
    22:00 +26°C° 0 mm 2 mps 757 mmHg 89%
    23:00 +26°C° 0 mm 2 mps 756 mmHg 90%
    Show more